Location: Unspecified
(0.0000°N, 0.0000°E)
Time: 04:22:13
(UTC+00:00)

FENGYUN 1C DEB - Pass Details

Date: 19 February 2026
Orbit: 775 x 802 km, 98.9° (Epoch: 9 April)

Event Time Altitude Azimuth Distance (km) Brightness Sun altitude
Rises 03:21:11 0° 136° (SE) 3,203 ? -42.1°
Reaches altitude 10° 03:24:18 10° 115° (ESE) 2,281 ? -41.4°
Enters shadow 03:26:45 16° 86° (E) 1,895 ? -40.8°
